When you browse on this site, cookies collect data to enhance your experience and personalize the content and advertising you see.
Visit our Privacy Policy to learn more. By continuing to use the site, you agree to this use of cookies and data.
  • In Hungary
  • List of Countries
  • For 7 days
  • Water Temperature
  • Satellite Maps
  • Weather Map
  • News
  • Weather Widgets
  • user-avatar
    Login

    Hourly Weather Banja Luka

    Today, 21 April, Sunday

    Time Temperature Precipitation Wind Pressure Humidity
    00:00 +7°C° 0 mm 1 mps 721 mmHg 72%
    01:00 +7°C° 0 mm 1 mps 720 mmHg 70%
    02:00 +7°C° 0 mm 1 mps 720 mmHg 70%
    03:00 +6°C° 0 mm 1 mps 720 mmHg 70%
    04:00 +6°C° 0 mm 1 mps 720 mmHg 70%
    05:00 +8°C° 0 mm 1 mps 720 mmHg 65%
    06:00 +9°C° 0 mm 1 mps 720 mmHg 61%
    07:00 +11°C° 0 mm 1 mps 720 mmHg 56%
    08:00 +14°C° 0 mm 1 mps 720 mmHg 47%
    09:00 +16°C° 0 mm 0 mps 720 mmHg 39%
    10:00 +19°C° 0 mm 0 mps 720 mmHg 30%
    11:00 +22°C° 0 mm 1 mps 720 mmHg 28%
    12:00 +22°C° 0 mm 1 mps 720 mmHg 26%
    13:00 +22°C° 0 mm 1 mps 720 mmHg 25%
    14:00 +22°C° 0 mm 1 mps 719 mmHg 27%
    15:00 +20°C° 0 mm 2 mps 719 mmHg 29%
    16:00 +20°C° 0 mm 2 mps 718 mmHg 30%
    17:00 +18°C° 0 mm 1 mps 718 mmHg 40%
    18:00 +14°C° 0 mm 1 mps 717 mmHg 50%
    19:00 +11°C° 0 mm 0 mps 717 mmHg 60%
    20:00 +11°C° 0 mm 1 mps 717 mmHg 64%
    21:00 +11°C° 0 mm 1 mps 717 mmHg 67%
    22:00 +10°C° 0 mm 1 mps 717 mmHg 71%
    23:00 +10°C° 0 mm 1 mps 717 mmHg 75%

    Tomorrow, 22 April, Monday

    Time Temperature Precipitation Wind Pressure Humidity
    00:00 +9°C° 0 mm 1 mps 717 mmHg 79%
    01:00 +9°C° 0 mm 1 mps 716 mmHg 83%
    02:00 +8°C° 0 mm 2 mps 716 mmHg 85%
    03:00 +8°C° 0 mm 2 mps 716 mmHg 87%
    04:00 +7°C° 0 mm 2 mps 715 mmHg 88%
    05:00 +9°C° 0 mm 2 mps 715 mmHg 83%
    06:00 +10°C° 0 mm 2 mps 715 mmHg 77%
    07:00 +12°C° 0 mm 2 mps 715 mmHg 72%
    08:00 +15°C° 0 mm 1 mps 715 mmHg 61%
    09:00 +18°C° 0 mm 1 mps 715 mmHg 50%
    10:00 +21°C° 0 mm 1 mps 715 mmHg 39%
    11:00 +20°C° 0 mm 2 mps 715 mmHg 37%
    12:00 +21°C° 0 mm 2 mps 714 mmHg 36%
    13:00 +23°C° 0 mm 2 mps 714 mmHg 34%
    14:00 +21°C° 0 mm 3 mps 713 mmHg 38%
    15:00 +21°C° 0 mm 3 mps 713 mmHg 41%
    16:00 +20°C° 0 mm 3 mps 712 mmHg 45%
    17:00 +18°C° 0 mm 3 mps 711 mmHg 52%
    18:00 +16°C° 0 mm 2 mps 711 mmHg 59%
    19:00 +13°C° 0 mm 2 mps 710 mmHg 66%
    20:00 +13°C° 0 mm 2 mps 710 mmHg 68%
    21:00 +12°C° 0 mm 2 mps 710 mmHg 70%
    22:00 +10°C° 0 mm 2 mps 710 mmHg 72%
    23:00 +10°C° 0.9 mm 2 mps 710 mmHg 78%

    Day after tomorrow, 23 April, Tuesday

    Time Temperature Precipitation Wind Pressure Humidity
    00:00 +10°C° 0.9 mm 2 mps 710 mmHg 84%
    01:00 +10°C° 0.9 mm 3 mps 709 mmHg 89%
    02:00 +10°C° 0.1 mm 3 mps 709 mmHg 89%
    03:00 +10°C° 0.1 mm 3 mps 709 mmHg 89%
    04:00 +10°C° 0.1 mm 3 mps 708 mmHg 89%
    05:00 +11°C° 0 mm 3 mps 708 mmHg 86%
    06:00 +12°C° 0 mm 4 mps 708 mmHg 82%
    07:00 +13°C° 0 mm 4 mps 708 mmHg 79%
    08:00 +14°C° 0 mm 5 mps 709 mmHg 71%
    09:00 +16°C° 0 mm 6 mps 709 mmHg 63%
    10:00 +18°C° 0 mm 7 mps 709 mmHg 55%
    11:00 +17°C° 0 mm 6 mps 709 mmHg 59%
    12:00 +16°C° 0 mm 6 mps 709 mmHg 63%
    13:00 +16°C° 0 mm 5 mps 709 mmHg 68%
    14:00 +16°C° 0 mm 5 mps 709 mmHg 65%
    15:00 +17°C° 0 mm 6 mps 709 mmHg 63%
    16:00 +19°C° 0 mm 6 mps 709 mmHg 61%
    17:00 +16°C° 0 mm 5 mps 709 mmHg 65%
    18:00 +15°C° 0 mm 5 mps 709 mmHg 69%
    19:00 +14°C° 0 mm 4 mps 709 mmHg 73%
    20:00 +14°C° 0 mm 4 mps 710 mmHg 74%
    21:00 +13°C° 0 mm 4 mps 711 mmHg 75%
    22:00 +13°C° 0 mm 4 mps 711 mmHg 76%
    23:00 +13°C° 0 mm 3 mps 712 mmHg 78%

    24 April, Wednesday

    Time Temperature Precipitation Wind Pressure Humidity
    00:00 +13°C° 0 mm 3 mps 712 mmHg 80%
    01:00 +12°C° 0 mm 3 mps 712 mmHg 82%
    02:00 +12°C° 0 mm 3 mps 713 mmHg 83%
    03:00 +12°C° 0 mm 3 mps 713 mmHg 83%
    04:00 +12°C° 0 mm 3 mps 713 mmHg 84%
    05:00 +13°C° 0 mm 3 mps 713 mmHg 80%
    06:00 +14°C° 0 mm 3 mps 714 mmHg 76%
    07:00 +16°C° 0 mm 3 mps 714 mmHg 72%
    08:00 +17°C° 0 mm 3 mps 715 mmHg 66%
    09:00 +19°C° 0 mm 4 mps 716 mmHg 60%
    10:00 +20°C° 0 mm 4 mps 716 mmHg 53%
    11:00 +21°C° 0 mm 4 mps 716 mmHg 50%
    12:00 +22°C° 0 mm 4 mps 716 mmHg 47%
    13:00 +23°C° 0 mm 5 mps 717 mmHg 44%
    14:00 +23°C° 0 mm 5 mps 716 mmHg 44%
    15:00 +22°C° 0 mm 5 mps 716 mmHg 44%
    16:00 +22°C° 0 mm 5 mps 716 mmHg 45%
    17:00 +20°C° 0 mm 4 mps 716 mmHg 54%
    18:00 +17°C° 0 mm 3 mps 716 mmHg 63%
    19:00 +15°C° 0 mm 2 mps 716 mmHg 73%
    20:00 +15°C° 0 mm 2 mps 716 mmHg 73%
    21:00 +14°C° 0 mm 2 mps 716 mmHg 74%
    22:00 +12°C° 0 mm 3 mps 717 mmHg 75%
    23:00 +12°C° 0 mm 3 mps 717 mmHg 75%

    25 April, Thursday

    Time Temperature Precipitation Wind Pressure Humidity
    00:00 +12°C° 0 mm 3 mps 717 mmHg 75%
    01:00 +12°C° 0 mm 3 mps 717 mmHg 74%
    02:00 +12°C° 0 mm 3 mps 717 mmHg 76%
    03:00 +12°C° 0 mm 3 mps 717 mmHg 78%
    04:00 +13°C° 0 mm 2 mps 717 mmHg 80%
    05:00 +13°C° 0 mm 3 mps 717 mmHg 76%
    06:00 +14°C° 0 mm 3 mps 718 mmHg 72%
    07:00 +17°C° 0 mm 3 mps 718 mmHg 67%
    08:00 +19°C° 0 mm 2 mps 718 mmHg 59%
    09:00 +23°C° 0 mm 2 mps 718 mmHg 50%
    10:00 +25°C° 0 mm 2 mps 719 mmHg 41%
    11:00 +26°C° 0 mm 2 mps 719 mmHg 38%
    12:00 +27°C° 0 mm 2 mps 719 mmHg 35%
    13:00 +28°C° 0 mm 1 mps 719 mmHg 32%
    14:00 +28°C° 0 mm 2 mps 718 mmHg 34%
    15:00 +27°C° 0 mm 2 mps 718 mmHg 36%
    16:00 +26°C° 0 mm 2 mps 717 mmHg 38%
    17:00 +24°C° 0 mm 2 mps 717 mmHg 48%
    18:00 +20°C° 0 mm 2 mps 717 mmHg 57%
    19:00 +18°C° 0 mm 2 mps 716 mmHg 67%
    20:00 +17°C° 0 mm 2 mps 716 mmHg 69%
    21:00 +16°C° 0 mm 2 mps 716 mmHg 71%
    22:00 +15°C° 0 mm 2 mps 716 mmHg 72%
    23:00 +15°C° 0 mm 2 mps 716 mmHg 70%

    26 April, Friday

    Time Temperature Precipitation Wind Pressure Humidity
    00:00 +15°C° 0 mm 2 mps 716 mmHg 68%
    01:00 +15°C° 0 mm 2 mps 716 mmHg 66%
    02:00 +14°C° 0 mm 2 mps 716 mmHg 67%
    03:00 +14°C° 0 mm 2 mps 715 mmHg 69%
    04:00 +13°C° 0 mm 2 mps 715 mmHg 71%
    05:00 +15°C° 0 mm 2 mps 715 mmHg 69%
    06:00 +16°C° 0 mm 2 mps 715 mmHg 67%
    07:00 +17°C° 0 mm 2 mps 716 mmHg 64%
    08:00 +19°C° 0 mm 2 mps 716 mmHg 58%
    09:00 +21°C° 0 mm 2 mps 716 mmHg 52%
    10:00 +25°C° 0 mm 2 mps 716 mmHg 46%
    11:00 +25°C° 0 mm 2 mps 716 mmHg 43%
    12:00 +26°C° 0 mm 2 mps 716 mmHg 40%
    13:00 +27°C° 0 mm 2 mps 716 mmHg 37%
    14:00 +27°C° 0 mm 2 mps 715 mmHg 39%
    15:00 +26°C° 0 mm 2 mps 715 mmHg 42%
    16:00 +25°C° 0 mm 2 mps 714 mmHg 44%
    17:00 +23°C° 0 mm 2 mps 714 mmHg 52%
    18:00 +20°C° 0 mm 2 mps 714 mmHg 61%
    19:00 +18°C° 0 mm 1 mps 714 mmHg 69%
    20:00 +16°C° 0.2 mm 1 mps 714 mmHg 75%
    21:00 +15°C° 0.2 mm 1 mps 714 mmHg 81%
    22:00 +14°C° 0.2 mm 1 mps 714 mmHg 88%
    23:00 +14°C° 0.4 mm 1 mps 714 mmHg 89%
    Show more